When you browse on this site, cookies collect data to enhance your experience and personalize the content and advertising you see.
Visit our Privacy Policy to learn more. By continuing to use the site, you agree to this use of cookies and data.
  • In Hungary
  • List of Countries
  • For 7 days
  • Water Temperature
  • Weather Map
  • News
  • Weather Widgets
  • user-avatar
    Login

    Hourly Weather Ico

    Today, 13 November, Wednesday

    Time Temperature Precipitation Wind Pressure Humidity
    00:00 +26°C° 0 mm 1 mps 742 mmHg 66%
    01:00 +25°C° 0 mm 1 mps 742 mmHg 69%
    02:00 +24°C° 0 mm 1 mps 742 mmHg 72%
    03:00 +23°C° 0 mm 1 mps 742 mmHg 75%
    04:00 +23°C° 0 mm 1 mps 742 mmHg 73%
    05:00 +24°C° 0 mm 1 mps 743 mmHg 72%
    06:00 +24°C° 0 mm 1 mps 743 mmHg 70%
    07:00 +27°C° 0 mm 1 mps 744 mmHg 58%
    08:00 +30°C° 0 mm 2 mps 744 mmHg 46%
    09:00 +35°C° 0 mm 2 mps 745 mmHg 34%
    10:00 +37°C° 0 mm 2 mps 744 mmHg 29%
    11:00 +39°C° 0 mm 2 mps 743 mmHg 24%
    12:00 +42°C° 0 mm 3 mps 742 mmHg 20%
    13:00 +41°C° 0 mm 2 mps 742 mmHg 19%
    14:00 +41°C° 0 mm 2 mps 741 mmHg 17%
    15:00 +42°C° 0 mm 2 mps 740 mmHg 16%
    16:00 +40°C° 0 mm 2 mps 740 mmHg 18%
    17:00 +37°C° 0 mm 2 mps 740 mmHg 21%
    18:00 +35°C° 0 mm 2 mps 740 mmHg 23%
    19:00 +32°C° 0 mm 2 mps 741 mmHg 30%
    20:00 +31°C° 0 mm 3 mps 742 mmHg 38%
    21:00 +29°C° 0 mm 4 mps 742 mmHg 45%
    22:00 +28°C° 0 mm 3 mps 742 mmHg 56%
    23:00 +26°C° 0 mm 2 mps 743 mmHg 67%

    Tomorrow, 14 November, Thursday

    Time Temperature Precipitation Wind Pressure Humidity
    00:00 +25°C° 0 mm 1 mps 743 mmHg 77%
    01:00 +24°C° 0 mm 1 mps 743 mmHg 80%
    02:00 +22°C° 0 mm 0 mps 743 mmHg 83%
    03:00 +21°C° 0 mm 0 mps 743 mmHg 86%
    04:00 +22°C° 0 mm 0 mps 743 mmHg 82%
    05:00 +22°C° 0 mm 0 mps 743 mmHg 78%
    06:00 +24°C° 0 mm 1 mps 743 mmHg 75%
    07:00 +28°C° 0 mm 1 mps 744 mmHg 62%
    08:00 +31°C° 0 mm 2 mps 744 mmHg 49%
    09:00 +35°C° 0 mm 2 mps 744 mmHg 37%
    10:00 +38°C° 0 mm 2 mps 744 mmHg 32%
    11:00 +40°C° 0 mm 2 mps 743 mmHg 27%
    12:00 +42°C° 0 mm 2 mps 742 mmHg 22%
    13:00 +42°C° 0 mm 2 mps 741 mmHg 21%
    14:00 +43°C° 0 mm 3 mps 740 mmHg 19%
    15:00 +43°C° 0 mm 3 mps 739 mmHg 18%
    16:00 +40°C° 0 mm 2 mps 740 mmHg 20%
    17:00 +38°C° 0 mm 2 mps 740 mmHg 22%
    18:00 +35°C° 0 mm 1 mps 740 mmHg 24%
    19:00 +34°C° 0 mm 2 mps 740 mmHg 37%
    20:00 +32°C° 0 mm 4 mps 741 mmHg 50%
    21:00 +29°C° 0 mm 5 mps 742 mmHg 63%
    22:00 +28°C° 0 mm 3 mps 742 mmHg 68%
    23:00 +27°C° 0 mm 2 mps 742 mmHg 74%

    Day after tomorrow, 15 November, Friday

    Time Temperature Precipitation Wind Pressure Humidity
    00:00 +26°C° 0 mm 1 mps 742 mmHg 79%
    01:00 +25°C° 0 mm 1 mps 742 mmHg 79%
    02:00 +25°C° 0 mm 1 mps 742 mmHg 79%
    03:00 +24°C° 0 mm 1 mps 742 mmHg 79%
    04:00 +24°C° 0 mm 1 mps 742 mmHg 77%
    05:00 +25°C° 0 mm 2 mps 742 mmHg 75%
    06:00 +25°C° 0 mm 2 mps 743 mmHg 73%
    07:00 +28°C° 0 mm 2 mps 743 mmHg 61%
    08:00 +31°C° 0 mm 2 mps 743 mmHg 49%
    09:00 +35°C° 0 mm 3 mps 744 mmHg 37%
    10:00 +37°C° 0 mm 3 mps 743 mmHg 32%
    11:00 +39°C° 0 mm 2 mps 742 mmHg 27%
    12:00 +42°C° 0 mm 2 mps 741 mmHg 21%
    13:00 +42°C° 0 mm 2 mps 740 mmHg 20%
    14:00 +42°C° 0 mm 2 mps 740 mmHg 19%
    15:00 +42°C° 0 mm 2 mps 739 mmHg 18%
    16:00 +40°C° 0 mm 1 mps 739 mmHg 20%
    17:00 +37°C° 0 mm 1 mps 739 mmHg 23%
    18:00 +35°C° 0 mm 1 mps 739 mmHg 25%
    19:00 +34°C° 0 mm 2 mps 740 mmHg 37%
    20:00 +31°C° 0 mm 3 mps 740 mmHg 48%
    21:00 +29°C° 0 mm 5 mps 740 mmHg 60%
    22:00 +28°C° 0 mm 4 mps 740 mmHg 66%
    23:00 +27°C° 0 mm 3 mps 741 mmHg 72%

    16 November, Saturday

    Time Temperature Precipitation Wind Pressure Humidity
    00:00 +25°C° 0 mm 2 mps 741 mmHg 78%
    01:00 +25°C° 0 mm 1 mps 740 mmHg 81%
    02:00 +24°C° 0 mm 1 mps 740 mmHg 85%
    03:00 +21°C° 0 mm 0 mps 740 mmHg 89%
    04:00 +21°C° 0 mm 0 mps 741 mmHg 87%
    05:00 +22°C° 0 mm 0 mps 741 mmHg 84%
    06:00 +22°C° 0 mm 0 mps 742 mmHg 82%
    07:00 +28°C° 0 mm 1 mps 742 mmHg 68%
    08:00 +31°C° 0 mm 1 mps 742 mmHg 53%
    09:00 +35°C° 0 mm 2 mps 743 mmHg 39%
    10:00 +38°C° 0 mm 2 mps 742 mmHg 34%
    11:00 +40°C° 0 mm 2 mps 741 mmHg 28%
    12:00 +42°C° 0 mm 2 mps 740 mmHg 23%
    13:00 +42°C° 0 mm 2 mps 740 mmHg 23%
    14:00 +41°C° 0 mm 2 mps 739 mmHg 23%
    15:00 +41°C° 0 mm 2 mps 738 mmHg 22%
    16:00 +39°C° 0 mm 2 mps 738 mmHg 26%
    17:00 +37°C° 0 mm 2 mps 738 mmHg 29%
    18:00 +34°C° 0 mm 1 mps 738 mmHg 33%
    19:00 +34°C° 0 mm 3 mps 739 mmHg 43%
    20:00 +32°C° 0 mm 4 mps 739 mmHg 53%
    21:00 +29°C° 0 mm 5 mps 740 mmHg 63%
    22:00 +28°C° 0 mm 4 mps 740 mmHg 70%
    23:00 +26°C° 0 mm 3 mps 740 mmHg 76%

    17 November, Sunday

    Time Temperature Precipitation Wind Pressure Humidity
    00:00 +25°C° 0 mm 2 mps 740 mmHg 82%
    01:00 +25°C° 0 mm 1 mps 740 mmHg 85%
    02:00 +24°C° 0 mm 1 mps 740 mmHg 89%
    03:00 +24°C° 0 mm 1 mps 740 mmHg 92%
    04:00 +24°C° 0 mm 1 mps 741 mmHg 89%
    05:00 +22°C° 0 mm 0 mps 741 mmHg 86%
    06:00 +22°C° 0 mm 0 mps 742 mmHg 84%
    07:00 +28°C° 0 mm 1 mps 742 mmHg 68%
    08:00 +31°C° 0 mm 1 mps 742 mmHg 53%
    09:00 +36°C° 0 mm 2 mps 743 mmHg 37%
    10:00 +38°C° 0 mm 2 mps 742 mmHg 33%
    11:00 +40°C° 0 mm 2 mps 741 mmHg 28%
    12:00 +42°C° 0 mm 3 mps 741 mmHg 23%
    13:00 +42°C° 0 mm 3 mps 740 mmHg 22%
    14:00 +43°C° 0 mm 3 mps 739 mmHg 21%
    15:00 +43°C° 0 mm 3 mps 738 mmHg 20%
    16:00 +40°C° 0 mm 2 mps 738 mmHg 22%
    17:00 +38°C° 0 mm 2 mps 738 mmHg 24%
    18:00 +36°C° 0 mm 2 mps 739 mmHg 26%
    19:00 +34°C° 0 mm 3 mps 739 mmHg 37%
    20:00 +32°C° 0 mm 4 mps 740 mmHg 48%
    21:00 +29°C° 0 mm 5 mps 741 mmHg 59%
    22:00 +28°C° 0 mm 4 mps 741 mmHg 67%
    23:00 +27°C° 0 mm 3 mps 741 mmHg 75%

    18 November, Monday

    Time Temperature Precipitation Wind Pressure Humidity
    00:00 +25°C° 0 mm 2 mps 741 mmHg 82%
    01:00 +25°C° 0 mm 1 mps 741 mmHg 86%
    02:00 +24°C° 0 mm 1 mps 741 mmHg 90%
    03:00 +24°C° 0 mm 1 mps 742 mmHg 93%
    04:00 +24°C° 0 mm 1 mps 742 mmHg 90%
    05:00 +24°C° 0 mm 1 mps 743 mmHg 87%
    06:00 +25°C° 0 mm 1 mps 743 mmHg 84%
    07:00 +27°C° 0 mm 1 mps 744 mmHg 71%
    08:00 +30°C° 0 mm 2 mps 744 mmHg 58%
    09:00 +34°C° 0 mm 2 mps 744 mmHg 45%
    10:00 +36°C° 0 mm 2 mps 744 mmHg 38%
    11:00 +39°C° 0 mm 2 mps 743 mmHg 31%
    12:00 +41°C° 0 mm 2 mps 742 mmHg 24%
    13:00 +42°C° 0 mm 2 mps 741 mmHg 22%
    14:00 +42°C° 0 mm 2 mps 741 mmHg 21%
    15:00 +42°C° 0 mm 2 mps 740 mmHg 20%
    16:00 +40°C° 0 mm 2 mps 740 mmHg 22%
    17:00 +38°C° 0 mm 2 mps 740 mmHg 25%
    18:00 +35°C° 0 mm 1 mps 740 mmHg 28%
    19:00 +34°C° 0 mm 2 mps 741 mmHg 39%
    20:00 +31°C° 0 mm 3 mps 742 mmHg 49%
    21:00 +30°C° 0 mm 5 mps 742 mmHg 60%
    22:00 +29°C° 0 mm 3 mps 743 mmHg 66%
    23:00 +27°C° 0 mm 2 mps 743 mmHg 72%
    Show more